Content
SEND FEEDBACK

Daily
Averages
Monthly
Summary
Bosnia and Herzegovina

ILIDZA, BOSNIA AND HERZEGOVINA


Home > Europe > Bosnia and Herzegovina
Elevation: 1677 feet     Latitude: 43 49N     Longitude: 018 19E

WEATHER
 
SELECT A DAY
Number of Records: 183,573;   Date Range: 2/20/97 - 11/27/14
 
SHARE

PRINT THIS DATA

[ ← Previous Day ]
WEATHER ALMANAC - MAY 4, 2014
[ Next Day → ]
[ °C ]   °F
Weather ElementAverageHighLow
Temperature42.6 °F50 °F (1:00 am)37.4 °F (10:30 pm)
Dewpoint41.2 °F50 °F (1:00 am)37.4 °F (6:00 pm)
Humidity94.4 %100 % (1:00 am)87 % (3:30 pm)
Barometer29.82 in29.95 in (9:30 pm)29.68 in (2:00 am)
Wind Speed5.7 mph9.2 mph (8:00 am)
Weather ElementAverage
Visibility4.2 mi
Wind DirectionWSW (246 °)

Weather ElementTotal
Precipitation---
Heating Degree Days21.3 (Base 65)
Averaged from 40 records on May 4, 2014
WEATHER CONDITIONS BREAKOUT
WIND DIRECTION BREAKOUT
WEATHER BY HOUR - MAY 4, 2014
[ °C ]   °F
Local TimeTemperatureDewpointHumidityBarometerVisibilityWind DirectionWind SpeedGust SpeedPrecipitationEventsConditions
1:00 AM50.0 °F50.0 °F100 %29.71 in5.0 miWest (260°)4.6 mphRainLight Rain
2:00 AM50.0 °F50.0 °F100 %29.68 in3.7 miWNW (290°)4.6 mphRainRain
3:00 AM48.2 °F46.4 °F93 %29.68 in3.7 miWNW (290°)6.9 mphRainLight Rain
4:00 AM46.4 °F44.6 °F93 %29.68 in3.7 miWest (280°)6.9 mphRainLight Rain
5:00 AM46.4 °F44.6 °F93 %29.68 in3.7 miWest (270°)8.1 mphRainLight Rain
5:30 AM46.4 °F44.6 °F93 %29.71 in3.7 miWest (280°)8.1 mphRainLight Rain
6:00 AM44.6 °F42.8 °F93 %29.71 in3.7 miWest (270°)8.1 mphLight Drizzle
6:30 AM44.6 °F44.6 °F100 %29.71 in3.7 miWest (270°)8.1 mphRainLight Rain
7:00 AM44.6 °F42.8 °F93 %29.74 in3.7 miWNW (290°)6.9 mphRainLight Rain
7:30 AM44.6 °F42.8 °F93 %29.74 in5.0 miWNW (300°)8.1 mphRainLight Rain
8:00 AM42.8 °F41.0 °F93 %29.77 in4.3 miWNW (300°)9.2 mphRainRain
8:30 AM42.8 °F41.0 °F93 %29.77 in4.3 miWNW (300°)6.9 mphRainRain
9:00 AM42.8 °F41.0 °F93 %29.77 in4.3 miNW (310°)6.9 mphRainRain
9:30 AM42.8 °F41.0 °F93 %29.80 in4.3 miNW (320°)6.9 mphRainRain
10:00 AM42.8 °F41.0 °F93 %29.80 in4.3 miWNW (300°)6.9 mphRainRain
10:30 AM42.8 °F41.0 °F93 %29.80 in5.0 miWest (280°)6.9 mphRainRain
11:00 AM42.8 °F41.0 °F93 %29.83 in4.3 miWNW (290°)5.8 mphRainRain
11:30 AM42.8 °F41.0 °F93 %29.83 in4.3 miNW (320°)5.8 mphRainRain
12:00 PM42.8 °F41.0 °F93 %29.83 in4.3 miNNW (330°)4.6 mphRainRain
12:30 PM42.8 °F41.0 °F93 %29.83 in4.3 miNW (310°)5.8 mphRainRain
1:00 PM42.8 °F41.0 °F93 %29.83 in4.3 miNW (310°)5.8 mphRainRain
1:30 PM42.8 °F41.0 °F93 %29.83 in4.3 miNNW (330°)5.8 mphRainRain
2:00 PM42.8 °F41.0 °F93 %29.86 in4.3 miNW (320°)5.8 mphRainRain
2:30 PM42.8 °F41.0 °F93 %29.86 in4.3 miNW (310°)8.1 mphRainRain
3:00 PM42.8 °F41.0 °F93 %29.86 in4.3 miNW (310°)5.8 mphRainRain
3:30 PM42.8 °F39.2 °F87 %29.86 in4.3 miNW (310°)6.9 mphRainRain
4:00 PM41.0 °F39.2 °F93 %29.86 in4.3 miNW (320°)6.9 mphRainRain
4:30 PM41.0 °F39.2 °F93 %29.89 in4.3 miNW (310°)5.8 mphRainRain
5:00 PM41.0 °F39.2 °F93 %29.89 in4.3 miNW (310°)5.8 mphRainRain
5:30 PM41.0 °F39.2 °F93 %29.89 in3.7 miWest (270°)5.8 mphRainRain
6:00 PM39.2 °F37.4 °F93 %29.89 in3.7 miWNW (290°)5.8 mphRainRain
6:30 PM39.2 °F37.4 °F93 %29.89 in4.3 miWest (280°)5.8 mphRainRain
7:30 PM39.2 °F39.2 °F100 %29.92 in4.3 miNW (310°)3.5 mphRainRain
8:00 PM39.2 °F39.2 °F100 %29.92 in4.3 miVariable2.3 mphRainRain
8:30 PM39.2 °F39.2 °F100 %29.92 in4.3 miVariable2.3 mphRainRain
9:00 PM39.2 °F39.2 °F100 %29.92 in4.3 miVariable1.2 mphRainRain
9:30 PM39.2 °F39.2 °F100 %29.95 in4.3 miCalmRainRain
10:00 PM39.2 °F37.4 °F93 %29.95 in4.3 miVariable2.3 mphRainRain
10:30 PM37.4 °F37.4 °F100 %29.95 in4.3 miVariable2.3 mphRain-SnowLight Rain
11:00 PM39.2 °F37.4 °F93 %29.95 in4.3 miVariable2.3 mphRainLight Rain
Hourly data recorded from LQSA, located miles away from Ilidza, Bosnia and Herzegovina







STORIES FROM OUR PARTNERS